Location: Dumbr?vi?a
(45.8833°N, 22.7000°E)
Time: 20:42:36
(UTC+00:00)

SL-4 R/B - Pass Details

Date: 03 March 2021
Orbit: 428 x 663 km, 51.6° (Epoch: 13 April)

Event Time Altitude Azimuth Distance (km) Brightness Sun altitude
Rises 18:14:02 0° 297° (WNW) 2,467 6.7 -20.8°
Reaches altitude 10° 18:16:15 10° 302° (WNW) 1,567 5.4 -21.1°
Enters shadow 18:19:15 48° 351° (N) 576 2.2 -21.7°
